GFSNW_con_lsi_057.txt.gz
Lid_Strength_Index
3 3 4 4 4 5 5 6 9 4 4 10 8 10 9 7 8 7 8 8 10 10 9 11 10 10 9 6 7 11 10 12 15 13 8 8 9 12 13 18 18 16 17 18
3 4 4 4 4 4 6 7 7 3 4 12 11 9 8 7 8 8 8 9 9 8 10 12 9 9 6 6 8 9 10 14 17 15 12 10 12 10 10 12 14 17 18 16
3 4 4 4 4 4 5 6 10 6 6 7 10 10 10 9 6 7 7 8 8 9 10 9 10 9 7 6 7 5 8 13 15 18 14 12 13 11 10 12 17 15 14 13
4 4 4 4 4 4 5 6 8 8 11 10 10 9 9 9 9 7 7 9 9 10 12 11 11 9 8 7 5 8 9 15 13 12 11 11 11 11 10 11 11 14 13 12
5 4 4 4 4 5 5 9 10 9 10 9 10 9 10 10 9 9 9 10 9 9 11 10 11 10 10 11 8 10 9 14 13 14 11 11 12 11 10 10 11 12 13 12
5 5 4 4 4 4 7 6 6 8 10 10 11 11 11 10 9 8 7 9 10 10 9 7 7 7 7 8 9 10 11 13 15 17 12 12 16 13 12 12 11 11 15 11
7 6 5 5 5 5 6 6 6 9 12 11 11 10 9 10 10 11 8 8 9 7 5 5 6 6 7 8 8 8 12 13 13 17 15 21 13 9 10 11 10 10 10 9
7 7 7 6 6 5 7 6 7 8 12 10 10 10 10 9 9 10 9 8 6 6 7 10 12 12 12 11 9 9 9 12 15 17 18 14 13 11 12 13 13 9 10 9
8 7 7 7 7 6 7 7 6 7 10 12 9 11 9 11 11 10 9 7 6 7 9 11 15 17 13 14 12 9 9 10 14 15 18 21 14 10 8 9 15 9 9 9
8 8 8 8 8 7 8 8 7 7 10 9 9 11 11 10 10 11 10 9 9 7 11 14 15 15 10 16 15 14 14 14 16 16 17 15 10 9 7 16 15 9 8 8
8 8 8 8 8 8 8 9 7 8 10 9 8 8 10 9 9 11 9 10 9 10 13 13 13 14 12 13 12 13 15 15 16 16 17 19 8 9 13 10 8 7 7 7
8 8 8 8 7 7 7 10 7 7 9 10 7 7 7 7 7 8 7 9 9 9 11 11 11 13 12 13 16 9 15 12 14 14 14 8 7 8 7 7 8 7 8 8
8 8 8 8 8 7 7 8 8 8 10 10 9 9 6 4 4 4 8 8 6 8 6 8 10 13 11 15 14 12 10 8 12 12 9 9 8 7 6 6 7 7 7 9
8 8 8 8 8 7 7 9 8 9 10 13 11 6 7 5 5 3 3 5 4 5 5 8 10 12 8 12 11 11 9 9 11 11 9 8 8 7 6 7 6 7 7 8
8 8 8 8 7 7 7 8 8 7 10 12 11 8 6 5 4 3 3 4 5 7 8 9 10 8 9 9 9 11 9 10 12 13 8 8 8 6 6 6 8 8 9 9
8 8 8 7 7 7 9 11 6 5 6 10 14 8 8 6 4 3 4 4 5 6 8 9 8 7 8 12 13 8 7 6 7 8 6 7 6 5 5 8 8 8 8 8
8 8 8 7 7 8 11 10 7 6 6 10 12 11 7 4 4 4 5 4 6 6 7 8 8 9 8 10 12 8 7 6 6 5 6 7 6 8 7 8 7 8 8 7
8 8 8 8 7 7 9 7 5 5 7 8 13 11 9 3 7 8 5 7 6 7 7 7 9 8 8 12 9 7 6 6 6 5 6 6 7 7 8 7 9 9 9 8
8 8 7 8 8 9 6 4 3 4 7 11 11 13 13 4 6 6 6 6 10 7 9 9 8 10 12 9 8 7 7 6 6 5 6 6 8 8 9 9 9 10 9 9
8 8 9 10 7 4 4 6 8 9 8 9 12 8 10 7 8 8 8 8 10 12 9 7 10 11 7 7 6 6 6 5 6 8 8 8 9 9 10 10 10 9 9 9
9 12 12 10 5 8 9 10 11 10 12 10 9 8 9 5 9 9 7 10 10 14 11 11 12 12 9 6 6 5 4 5 5 6 6 8 9 9 9 10 10 9 10 10
11 11 9 8 9 10 12 11 9 10 11 8 8 8 8 6 5 8 8 11 10 13 8 12 13 10 7 6 6 5 5 4 6 6 7 8 9 9 9 10 10 9 9 10
9 11 11 11 11 15 14 14 12 11 7 7 7 8 8 6 6 8 10 12 13 8 12 13 11 8 6 6 5 5 4 4 5 6 6 7 9 8 9 9 10 10 11 11
11 11 17 13 13 11 10 10 10 9 7 7 6 7 8 7 9 9 12 10 10 14 15 14 10 8 6 5 5 5 5 4 5 5 6 7 9 9 9 9 10 11 12 12
12 11 16 12 10 10 9 9 10 8 7 7 7 6 7 9 10 9 10 12 14 13 14 10 8 7 6 5 5 5 5 4 5 5 6 6 8 9 9 10 11 11 12 12
11 11 13 11 11 11 10 10 10 7 8 6 6 8 10 11 10 12 13 13 14 13 10 8 7 6 6 5 5 4 4 4 5 5 5 5 7 9 10 10 11 11 12 12
12 12 10 10 9 10 10 8 8 6 7 8 8 11 12 9 12 12 11 13 12 10 9 6 6 6 5 5 4 4 4 4 4 5 5 4 5 7 9 10 11 11 12 12

GFSNW_con_lsi_060.txt.gz
Lid_Strength_Index
3 4 4 4 4 5 6 9 10 4 5 11 11 12 10 8 8 7 8 9 9 11 11 12 11 11 9 6 7 11 10 13 16 13 9 8 10 12 13 17 18 16 17 17
4 4 4 4 4 4 7 9 9 5 6 13 14 11 9 8 8 9 9 10 9 9 12 13 10 9 6 6 8 10 10 14 17 15 13 10 11 11 11 12 13 17 18 17
6 5 5 5 5 5 8 9 11 10 9 10 12 12 11 10 7 8 8 9 9 10 12 10 11 10 7 6 7 6 8 13 15 18 14 13 14 12 11 12 16 15 15 13
6 6 6 6 5 5 8 10 12 11 14 12 12 12 11 11 10 9 9 10 10 11 14 12 12 10 9 7 6 8 10 14 13 12 12 11 12 12 12 13 12 16 13 14
7 7 6 6 6 6 10 13 13 11 12 11 12 11 12 12 10 11 11 12 10 11 13 12 13 10 10 11 8 10 10 14 13 14 11 11 13 11 11 11 12 13 13 13
7 7 7 7 7 7 11 11 10 11 12 12 13 14 12 11 10 10 9 11 11 11 10 8 9 8 8 8 10 10 11 13 15 17 12 13 16 13 13 12 11 12 15 12
7 7 7 7 7 8 12 11 11 13 15 12 13 11 11 11 11 12 10 10 12 8 6 7 8 8 8 8 9 9 12 13 14 16 15 20 13 10 10 11 10 10 10 10
7 7 7 8 7 7 12 11 12 12 16 12 12 11 12 11 10 11 11 9 9 8 9 11 13 12 12 10 9 10 9 12 15 17 18 14 13 11 12 13 13 9 10 9
7 7 7 8 7 8 12 12 11 12 12 15 11 12 12 14 14 13 10 8 8 9 10 12 16 17 13 15 12 9 10 10 14 16 19 22 13 10 8 9 16 9 9 9
8 7 7 7 8 8 10 12 11 13 14 12 12 14 14 12 14 15 11 10 10 9 11 13 15 15 11 16 15 15 14 14 16 16 17 15 10 9 8 16 14 9 9 9
8 8 8 7 8 8 9 12 11 13 13 12 10 10 12 12 13 14 11 10 11 12 12 13 13 14 13 13 12 13 14 16 16 15 17 19 8 9 13 10 8 8 8 7
8 8 8 8 8 8 8 12 11 10 12 12 9 9 9 9 9 10 9 9 9 9 11 11 11 13 12 13 16 10 15 12 14 14 14 9 8 8 7 8 8 7 7 8
8 8 8 8 8 8 8 11 11 12 12 12 12 12 9 8 7 7 10 10 8 9 7 11 10 13 12 15 13 12 10 8 12 12 10 9 8 6 7 6 7 7 8 9
8 8 8 8 8 7 7 11 11 12 12 15 13 8 9 7 7 7 5 6 6 6 6 9 10 12 10 12 11 11 10 9 10 11 9 8 7 7 6 6 6 7 8 9
8 8 8 8 7 7 8 10 10 10 12 14 13 10 9 8 8 7 5 6 6 7 8 9 10 8 10 11 11 12 9 10 12 13 8 9 8 6 6 7 7 7 9 8
8 8 8 8 8 7 11 14 8 8 8 12 14 12 10 8 7 6 6 6 7 6 8 8 9 9 9 12 13 9 8 7 6 8 6 6 6 5 5 6 8 8 8 8
8 8 8 8 8 10 13 14 9 7 8 11 14 14 10 7 5 5 6 6 7 6 7 8 8 9 9 10 13 9 8 7 6 5 6 7 6 8 7 8 8 8 8 7
8 8 8 8 8 8 10 9 7 7 9 9 14 15 12 7 7 8 5 7 6 7 8 8 9 8 9 12 10 8 6 6 6 6 6 7 7 8 8 8 9 9 9 8
8 8 8 9 11 11 10 4 5 6 8 12 12 13 15 8 8 7 6 6 10 7 9 9 9 10 13 10 9 7 7 7 6 6 6 8 8 9 9 8 10 10 9 9
7 9 11 11 9 5 5 7 9 9 9 10 12 9 11 9 9 11 10 8 10 12 10 7 10 11 8 7 6 6 6 5 7 9 9 9 9 9 9 10 10 9 10 9
11 14 15 13 9 11 12 13 11 11 13 11 11 9 9 7 10 10 10 12 10 13 11 11 12 12 9 6 6 5 5 6 7 7 7 8 9 9 10 10 9 9 9 10
12 12 11 12 12 13 14 14 10 11 12 10 10 9 7 8 5 9 8 11 10 14 8 12 14 10 7 6 6 5 5 7 7 7 7 7 8 9 9 10 10 9 10 10
10 13 13 14 13 18 15 15 14 14 11 9 10 11 9 7 7 9 9 12 13 8 12 14 11 9 7 7 5 5 4 6 6 7 6 7 9 8 9 10 10 11 10 11
13 13 19 15 15 14 13 13 13 12 11 12 12 11 10 8 9 9 12 10 10 14 15 14 10 10 9 7 5 5 5 6 6 6 6 7 9 9 9 10 10 11 13 12
13 14 19 15 12 13 13 13 13 12 11 12 13 12 9 9 10 9 10 12 14 13 13 12 11 10 7 6 5 5 5 6 7 6 6 7 8 9 10 10 11 11 12 13
13 13 15 14 14 14 14 13 13 11 11 10 9 9 10 11 10 12 13 13 15 13 12 11 10 9 6 5 5 5 4 5 6 6 5 6 7 10 10 11 11 12 12 13
13 14 13 14 14 14 13 12 11 10 11 12 9 11 12 9 12 13 11 14 12 11 10 9 8 9 7 5 4 4 4 4 5 5 5 6 6 8 10 12 11 12 12 13

GFSNW_con_lsi_063.txt.gz
Lid_Strength_Index
6 6 6 6 6 6 6 10 11 6 6 10 12 13 10 8 9 7 9 10 10 12 12 12 12 12 10 7 7 11 10 13 16 14 9 9 11 13 13 17 18 17 17 17
6 6 6 6 6 6 9 11 11 6 7 15 14 12 10 9 9 9 10 11 10 10 12 15 11 10 7 8 8 10 10 14 17 15 13 11 13 12 12 12 14 17 19 16
6 6 6 6 7 7 9 12 14 12 11 12 13 13 12 11 8 9 9 10 10 11 13 12 12 11 8 7 8 6 8 12 14 17 15 14 14 12 11 12 17 16 16 14
7 7 6 7 7 7 10 13 15 14 17 15 15 13 12 12 12 10 10 11 11 12 15 13 13 11 10 8 7 8 10 15 13 12 11 11 12 13 12 14 13 16 14 14
7 7 7 7 7 7 11 14 15 14 15 14 14 13 13 12 11 11 12 13 11 12 14 13 14 12 12 11 9 10 10 14 13 15 12 12 14 12 11 11 12 13 13 13
7 7 7 7 7 9 13 12 12 14 15 16 16 16 13 12 11 11 10 11 13 13 11 9 9 9 9 9 10 11 12 13 15 17 12 13 16 13 12 12 11 12 15 11
7 8 8 8 7 9 12 12 12 14 16 16 15 13 12 13 12 13 10 10 13 10 8 8 9 9 9 9 9 8 12 12 13 16 14 21 13 10 10 11 11 10 10 10
7 8 8 8 8 8 12 12 13 14 16 15 14 13 13 13 12 13 12 11 9 8 9 12 13 12 12 11 9 10 10 12 15 17 18 15 12 12 12 13 13 9 10 9
8 8 8 8 8 8 12 13 12 14 15 17 13 14 13 15 16 14 12 9 8 9 11 12 14 17 14 15 13 9 9 10 14 16 19 21 15 10 8 9 16 9 9 9
8 8 8 8 8 8 11 13 12 13 15 14 14 16 15 14 15 16 13 10 10 7 11 13 15 16 12 16 16 15 14 13 16 16 17 15 10 9 8 16 14 9 9 9
7 8 8 8 8 8 10 13 12 13 14 13 13 12 14 14 14 14 13 13 12 12 15 13 13 14 13 14 12 13 14 15 16 15 17 19 9 9 13 10 8 9 8 8
8 8 8 8 8 8 8 13 11 11 13 13 12 11 10 10 10 12 13 13 11 10 14 13 12 16 14 13 16 10 15 13 15 14 14 10 8 9 7 6 7 7 8 7
8 8 8 8 8 8 8 12 12 11 13 13 15 13 10 9 8 8 13 12 9 10 7 9 13 14 11 14 14 13 10 9 12 12 10 9 8 7 6 6 7 7 7 8
8 7 8 8 7 8 8 10 11 10 13 16 15 10 10 8 9 9 8 8 8 6 6 9 10 12 9 12 12 12 10 10 12 12 9 8 7 7 6 7 6 7 7 8
7 7 8 7 8 8 9 11 11 9 14 16 14 11 10 8 8 9 8 8 10 7 8 10 11 9 9 10 12 13 10 11 13 12 8 8 8 6 6 6 6 7 8 9
7 7 8 8 8 8 12 14 10 9 9 13 16 12 11 9 7 7 8 8 10 9 8 8 8 7 9 12 13 11 9 8 7 9 6 6 6 5 6 7 8 8 8 8
7 8 8 8 8 10 13 15 10 8 10 13 14 15 11 9 7 6 5 6 7 7 7 8 8 8 8 11 13 10 8 7 6 5 6 7 7 8 8 8 8 7 8 8
7 7 7 7 8 9 11 10 8 7 11 10 14 16 13 9 10 10 6 7 6 7 8 8 9 9 9 12 10 9 7 6 6 5 6 7 8 9 9 8 8 9 9 8
7 7 7 9 10 12 11 6 6 7 9 12 12 14 16 9 10 10 7 6 10 7 9 9 9 10 12 9 8 8 7 7 7 6 7 8 9 9 8 8 9 10 10 9
7 8 10 11 9 7 6 8 10 10 10 10 13 11 13 10 9 10 11 7 10 12 10 8 11 11 7 7 6 6 6 6 7 8 9 9 10 10 9 10 9 10 9 9
12 14 14 12 9 11 13 14 12 12 13 11 11 11 12 8 9 10 9 12 10 13 11 11 12 12 9 7 7 5 5 7 6 7 8 9 10 10 9 9 9 9 10 10
12 12 11 11 13 14 15 15 11 12 13 11 12 12 10 9 7 9 8 11 10 14 8 12 14 10 9 9 8 7 5 5 7 7 8 9 9 9 9 9 10 10 10 11
10 12 13 14 15 19 16 16 15 15 12 11 12 14 12 11 6 9 9 12 13 8 12 13 11 10 10 10 8 6 4 6 6 7 7 8 9 9 10 11 11 10 11 10
12 13 18 16 17 15 14 14 14 13 12 13 14 14 13 12 10 9 12 10 10 13 15 15 11 11 11 10 7 5 5 6 6 7 7 9 9 10 10 10 11 11 12 12
13 13 19 16 14 14 13 13 14 13 13 14 14 14 13 10 10 9 10 12 14 14 15 13 11 11 10 9 7 5 5 5 7 6 7 9 9 10 11 11 11 12 11 12
12 14 16 15 15 15 15 14 13 12 12 12 11 11 11 11 10 14 14 16 19 15 12 11 10 10 10 8 7 5 4 4 5 6 6 7 9 10 11 11 11 12 11 12
13 15 14 15 15 15 14 13 12 11 13 14 12 13 13 10 14 16 13 14 12 11 11 10 10 10 10 8 7 5 4 4 5 6 6 7 7 10 11 12 11 11 12 12

GFSNW_con_lsi_069.txt.gz
Lid_Strength_Index
6 6 6 7 7 8 8 8 9 5 6 9 12 12 11 10 10 9 9 10 10 10 10 11 11 11 9 7 7 9 8 10 13 11 8 7 8 10 10 15 16 14 15 14
6 6 7 7 7 8 9 10 9 5 6 11 12 12 12 11 11 10 10 11 10 9 11 12 11 10 8 7 7 9 8 11 15 13 11 9 11 10 9 10 11 15 16 14
7 7 7 7 7 8 9 10 12 10 10 11 13 14 14 13 10 11 11 11 10 11 11 10 11 10 8 7 7 6 7 10 13 15 13 10 12 11 10 11 16 14 14 12
7 8 8 7 8 8 10 12 13 13 14 14 14 13 13 14 14 11 11 12 12 12 13 12 11 9 8 7 7 7 8 13 11 11 10 10 11 11 10 12 11 15 12 12
7 8 8 8 8 8 10 13 13 13 13 14 14 14 14 14 13 13 13 13 12 11 12 11 12 10 9 10 7 8 8 12 11 12 10 11 13 11 11 11 10 11 11 11
7 8 8 8 8 9 11 11 11 12 15 15 14 15 14 14 13 13 12 12 12 12 11 9 8 7 7 7 8 9 10 11 13 15 11 11 14 11 10 10 9 10 13 10
8 8 8 8 8 10 11 12 12 13 16 15 15 14 14 14 14 14 12 11 12 10 8 7 7 7 7 8 8 8 10 11 12 15 14 19 10 8 8 10 9 8 8 8
7 8 8 8 8 9 11 11 12 12 16 15 15 14 13 13 12 13 13 11 9 8 9 10 11 10 11 11 10 10 9 11 14 16 17 12 11 9 11 11 11 7 8 8
7 8 8 8 8 9 10 11 11 12 15 16 14 14 14 15 15 13 12 10 8 8 9 10 14 14 12 13 13 9 9 10 14 15 18 20 12 9 7 8 14 8 8 8
7 7 8 8 8 8 10 11 10 12 15 13 13 15 15 13 14 14 13 11 11 9 10 12 13 13 11 16 15 13 13 13 15 15 16 13 9 8 7 15 12 7 6 7
7 7 8 8 8 8 9 10 10 11 14 14 13 12 13 13 13 15 13 12 11 10 11 11 12 12 11 12 11 12 13 14 15 14 16 17 8 8 12 8 6 6 6 6
6 7 7 8 8 7 8 11 10 10 13 13 11 11 10 11 10 12 11 12 12 9 10 10 10 11 11 12 15 8 13 10 13 13 13 7 6 7 5 5 7 7 7 6
6 7 7 8 8 7 8 9 9 11 13 13 13 13 10 9 9 8 12 10 9 8 6 9 10 13 10 13 12 11 9 7 10 10 8 7 6 5 5 5 6 5 5 5
6 6 7 7 7 7 7 9 9 10 12 16 13 10 10 7 8 8 8 8 7 6 6 8 10 11 9 11 10 11 9 9 9 10 8 8 7 6 5 5 5 5 5 6
6 6 6 7 7 7 8 8 8 9 12 15 14 10 9 8 7 8 8 8 8 8 10 9 11 9 10 9 10 11 8 9 12 12 8 9 8 5 5 5 7 7 7 8
6 5 6 7 7 8 9 12 10 9 9 13 16 11 10 8 8 8 8 8 8 8 9 9 8 7 9 11 12 9 7 7 7 8 6 6 5 4 5 7 7 7 8 8
6 6 7 7 8 8 11 13 10 9 9 13 15 13 10 9 8 6 8 8 8 8 9 9 8 8 8 11 13 9 8 8 7 5 5 6 6 7 6 7 6 7 8 8
6 7 8 8 8 8 10 8 7 8 10 12 15 13 11 8 9 9 5 9 7 8 8 7 9 8 9 12 9 9 9 8 6 5 5 5 6 6 7 6 7 8 9 9
8 9 8 8 9 11 10 7 7 8 10 13 13 14 14 8 8 8 8 6 10 6 9 9 8 10 12 10 10 11 9 8 7 5 5 6 7 8 7 7 9 10 10 10
9 9 10 11 10 7 6 9 11 12 11 10 13 11 13 10 9 9 8 7 9 11 9 8 10 11 8 9 9 9 8 7 5 7 7 8 8 8 8 8 9 10 10 10
11 12 12 11 8 9 11 13 13 13 14 12 12 11 12 9 12 11 8 9 8 13 11 11 12 11 10 9 10 9 8 6 5 4 6 7 8 8 8 9 10 10 10 10
11 11 10 9 11 13 15 15 13 14 15 11 12 11 10 9 8 11 9 10 10 14 8 11 13 10 10 10 10 9 7 6 5 4 7 7 8 8 9 11 12 12 11 11
9 11 12 12 13 16 17 17 15 14 11 10 10 11 10 9 9 9 9 12 12 8 11 13 11 10 10 10 9 9 7 6 5 4 7 7 8 8 9 10 11 11 11 11
12 13 16 15 15 14 13 13 13 12 11 11 11 11 11 10 10 9 12 9 9 13 15 14 11 11 11 10 9 9 8 7 6 5 7 8 8 9 9 10 11 11 12 12
12 12 15 15 12 12 11 12 12 12 10 11 12 10 10 11 12 11 11 12 15 15 15 13 10 10 10 10 9 9 9 8 5 5 7 9 9 9 9 10 11 11 12 13
12 12 14 13 13 14 13 13 12 10 10 9 9 11 12 14 13 14 15 15 16 14 12 10 10 10 10 10 9 9 8 7 6 5 7 8 9 9 9 10 10 11 11 13
13 14 11 12 13 13 13 12 11 10 11 11 11 14 14 12 14 16 13 13 12 10 10 9 10 10 10 9 9 9 8 8 6 6 6 7 9 9 10 11 11 11 11 12

GFSNW_con_lsi_072.txt.gz
Lid_Strength_Index
7 7 7 7 7 8 7 6 8 4 3 8 7 9 10 10 9 8 9 9 10 11 10 10 9 9 8 6 6 8 6 9 12 10 7 6 7 9 9 15 14 12 13 13
7 7 7 7 8 8 7 9 7 3 5 10 10 10 11 10 11 10 10 10 10 9 10 11 9 8 6 6 6 7 7 10 14 12 10 8 9 8 8 9 10 14 16 12
7 7 8 8 8 8 8 9 11 9 7 8 12 13 12 12 9 10 10 10 10 10 11 8 9 8 7 6 5 6 6 9 12 15 12 11 12 10 9 10 15 13 12 10
7 7 8 8 8 9 8 10 11 11 12 11 11 11 12 13 13 10 10 11 11 11 12 10 10 8 7 6 5 6 7 12 10 9 9 9 10 10 10 12 11 14 11 10
7 8 8 8 8 9 9 11 12 11 12 12 12 12 12 13 12 12 13 12 12 10 11 10 10 9 8 8 6 7 6 11 9 11 9 9 11 9 9 9 9 9 9 9
7 8 8 8 8 8 10 9 9 11 11 13 12 12 13 13 12 12 11 11 11 11 9 8 7 7 6 6 7 8 8 11 13 14 10 11 13 10 9 8 8 8 11 8
7 8 8 8 8 9 9 10 11 12 13 13 12 13 12 13 12 13 11 11 11 9 7 6 6 6 6 6 7 6 10 11 11 14 12 19 9 7 7 8 8 7 7 6
7 7 8 9 9 9 9 8 10 11 13 13 13 13 12 12 11 12 12 11 9 7 8 9 9 9 10 10 9 9 7 10 14 16 16 11 10 8 9 10 10 6 7 6
7 7 8 9 9 9 8 8 8 11 14 12 12 13 12 13 13 13 11 9 7 7 8 9 13 11 11 12 13 8 9 10 14 15 18 19 12 8 6 7 12 7 7 7
7 6 7 8 8 8 8 8 8 11 14 12 12 13 13 12 12 13 11 10 9 7 9 11 12 12 10 14 14 13 13 13 15 14 16 12 8 7 6 14 12 6 6 6
7 7 7 7 8 8 8 8 8 10 13 12 11 11 12 12 12 13 10 10 9 9 11 10 10 11 10 10 9 10 12 13 14 14 16 17 7 7 11 8 6 6 6 6
7 7 6 7 7 8 8 10 8 8 12 12 9 9 8 9 9 10 9 9 9 8 9 8 8 11 9 10 14 7 12 9 12 11 11 6 5 6 6 6 7 6 6 5
7 7 6 6 7 7 8 9 9 9 12 11 10 10 8 7 7 6 10 7 7 6 4 7 7 11 8 12 11 10 8 7 10 10 8 7 7 5 5 5 5 4 4 5
7 7 6 6 7 7 7 8 8 9 11 14 11 8 9 7 6 6 6 7 5 4 4 7 9 10 7 10 9 10 8 8 9 9 7 8 6 5 5 5 4 4 5 6
6 7 6 6 7 7 7 7 8 8 11 12 12 9 8 7 6 6 6 6 8 7 8 8 9 7 8 8 8 10 8 10 12 12 8 9 8 5 4 5 5 5 7 7
6 6 6 6 7 7 9 11 8 7 8 12 14 9 9 7 6 6 6 7 8 7 8 8 7 6 8 11 11 8 7 6 8 10 8 7 5 4 4 6 6 6 6 7
6 6 6 7 7 7 11 11 9 7 7 12 14 11 8 7 6 5 8 8 8 7 7 8 8 7 8 10 13 9 8 9 8 5 5 6 5 5 5 5 6 5 6 7
6 6 7 8 7 7 10 8 7 7 9 11 14 12 10 6 7 8 5 8 8 7 7 8 8 8 9 12 8 9 9 9 6 5 4 5 4 5 6 6 6 9 9 9
6 7 7 7 9 10 8 6 7 7 9 13 13 13 11 7 8 6 6 6 10 6 9 8 8 10 11 10 10 10 10 9 8 6 5 5 6 7 7 8 9 10 10 10
7 7 10 12 9 6 5 8 11 12 11 11 13 9 10 8 8 8 7 6 7 10 9 8 10 10 8 8 9 9 9 7 6 7 7 7 8 8 8 10 10 10 10 10
9 11 11 9 7 7 9 12 13 12 13 12 10 9 10 7 10 10 8 9 8 12 11 11 12 11 9 9 10 8 7 6 5 4 5 6 8 8 10 10 10 11 11 11
9 9 8 8 10 11 14 13 11 13 14 10 10 9 8 7 6 10 9 10 9 14 7 11 13 9 9 10 9 8 7 7 6 4 6 7 8 8 9 11 11 11 11 11
8 10 11 12 12 16 16 16 14 13 10 9 8 9 8 8 8 9 9 12 12 6 10 11 10 9 10 10 9 9 8 8 5 4 5 7 7 8 9 10 10 10 11 12
11 12 15 14 14 13 12 11 11 10 10 9 8 9 9 7 10 8 11 9 8 11 13 14 10 9 10 9 9 9 9 8 6 4 6 8 8 8 9 10 10 11 12 12
11 11 15 14 11 9 9 9 10 10 9 9 9 9 8 9 11 10 10 12 14 12 12 11 9 9 9 9 9 9 9 8 7 4 6 7 8 8 9 10 10 11 12 14
11 11 12 10 11 11 10 10 10 8 8 7 7 9 11 13 12 14 15 13 14 12 11 9 8 9 9 9 9 9 8 7 7 6 5 7 8 8 9 9 10 11 11 13
12 13 10 10 10 10 10 9 9 7 9 10 9 12 15 11 13 14 13 13 11 9 9 8 8 9 8 8 9 9 8 8 7 6 5 5 6 7 9 10 9 9 11 11

GFSNW_con_lsi_075.txt.gz
Lid_Strength_Index
6 7 7 7 8 9 8 6 8 3 2 8 7 9 9 10 9 8 8 8 9 10 10 11 10 10 8 5 6 8 6 9 12 10 7 6 7 9 9 15 15 12 13 12
7 7 7 8 8 9 8 9 8 4 5 9 9 9 9 9 10 9 10 10 9 8 10 11 10 9 6 5 6 7 7 10 14 12 9 9 10 10 9 8 9 13 16 13
7 7 8 8 8 9 8 9 10 8 7 8 10 10 10 10 9 9 9 9 9 10 10 9 10 8 6 5 5 5 5 9 12 15 12 10 13 12 10 13 14 13 12 11
7 7 7 8 8 8 8 7 9 9 11 10 9 9 9 10 10 9 9 10 10 10 12 10 9 8 7 6 4 5 6 11 10 9 9 9 10 9 9 11 10 13 11 12
7 7 7 8 8 9 7 10 10 9 10 9 10 10 10 10 10 10 10 11 10 10 11 10 10 8 7 8 6 6 6 10 9 10 9 9 10 9 9 9 9 9 9 9
7 7 7 8 8 8 8 8 8 10 10 10 11 10 10 11 10 10 10 11 11 11 9 8 7 7 6 6 7 7 8 9 11 14 9 10 14 10 9 9 8 8 11 8
7 6 7 8 8 9 8 8 10 11 12 11 11 10 10 11 10 11 10 9 10 8 6 6 6 6 6 6 6 5 8 9 10 14 12 18 9 7 7 8 7 7 7 7
7 7 7 8 8 8 8 7 9 10 12 11 11 10 10 10 9 10 10 10 8 7 8 9 9 9 9 9 8 7 7 9 14 16 15 12 10 8 9 10 10 6 7 7
8 7 6 7 8 8 9 7 7 9 12 11 11 11 10 11 11 11 10 8 7 7 8 9 12 12 10 12 11 7 8 9 14 14 18 18 10 8 6 6 12 7 7 7
7 7 6 6 7 8 8 8 6 9 12 10 10 11 11 10 11 12 10 10 8 7 9 11 11 11 9 12 13 14 13 13 15 14 16 12 8 6 5 14 12 7 6 6
7 7 6 5 6 7 8 8 6 10 11 11 10 9 10 10 10 12 9 9 8 8 10 10 10 11 10 10 9 10 11 13 14 14 16 17 6 7 12 8 6 5 5 6
6 6 6 6 5 7 7 10 7 7 10 11 9 8 7 8 8 9 8 8 8 8 8 8 9 10 9 10 13 7 11 10 13 11 11 6 5 6 5 5 6 5 5 5
6 6 6 6 5 6 7 8 7 8 11 10 9 9 6 6 6 5 9 7 6 7 4 7 8 11 7 12 11 10 8 6 9 10 7 7 6 5 4 4 5 4 4 5
6 5 6 6 5 6 7 8 7 8 10 13 10 6 8 6 5 5 5 5 5 5 5 7 8 10 6 10 9 9 8 7 10 9 7 7 6 5 5 5 5 5 4 4
5 5 6 6 5 6 6 7 7 6 10 13 11 7 6 5 6 6 5 5 7 7 8 8 9 7 8 7 7 9 8 10 12 12 8 8 7 5 5 6 5 5 5 6
4 4 5 6 5 6 8 11 7 6 7 11 13 7 7 6 6 6 6 6 7 8 7 7 6 5 7 10 11 8 6 6 7 10 8 7 6 5 4 5 5 5 5 6
4 4 5 5 6 7 10 10 8 6 6 11 13 10 7 6 6 6 5 6 8 8 7 7 7 6 7 10 12 7 6 8 8 6 6 7 5 6 5 6 6 6 7 7
4 5 5 6 6 8 10 7 7 6 8 9 13 11 9 6 8 8 5 8 8 8 7 6 8 7 8 12 8 7 9 9 7 7 7 5 4 6 7 7 7 9 9 9
5 5 6 7 8 10 8 6 6 5 8 12 12 13 11 6 7 6 6 6 10 7 9 8 8 10 11 8 9 10 10 10 9 7 5 5 6 8 7 9 10 10 10 10
5 7 9 11 9 6 5 8 11 11 11 11 12 9 11 7 6 8 8 6 9 12 9 7 10 10 7 8 9 10 9 8 6 7 7 7 9 9 9 10 11 11 11 11
8 10 10 8 6 7 9 11 12 13 13 11 10 10 11 6 9 9 7 8 7 11 11 10 12 12 8 7 9 8 7 7 7 4 5 6 8 8 10 10 10 11 12 12
8 8 7 8 10 11 12 13 11 12 13 10 11 9 8 7 5 8 7 10 8 14 7 11 13 9 8 9 9 8 8 8 6 4 5 6 8 8 9 10 10 11 12 12
7 9 10 10 11 15 16 16 13 12 10 9 9 9 8 7 7 8 9 10 11 6 10 12 10 8 7 8 9 8 8 7 5 4 4 6 8 7 9 9 10 11 11 12
10 12 14 13 14 13 12 11 10 8 9 9 8 8 9 8 9 8 11 8 7 11 14 13 8 8 8 8 8 9 9 8 6 5 5 6 6 8 9 9 10 10 12 13
11 11 14 13 10 9 8 7 8 8 8 8 8 7 8 8 10 9 9 11 13 10 12 10 8 7 7 8 8 9 9 7 6 5 5 6 6 8 8 9 9 10 10 12
10 10 11 10 10 10 9 9 9 8 8 7 7 9 10 11 10 12 12 12 13 11 9 8 7 7 7 7 8 8 8 8 7 6 6 5 6 7 8 8 8 9 11 11
11 11 9 9 9 9 9 8 8 7 8 10 8 11 13 10 12 13 11 12 10 8 8 7 6 7 7 6 7 7 7 7 7 7 6 5 5 6 7 9 9 8 10 11